Weather History for Covington, KY

Change the Weather History Date:

Tuesday, January 7, 2014

  Actual Average Record
Temperature  
Mean Temperature 3 °F 31 °F  
Max Temperature 12 °F 38 °F 69 °F (1907)
Min Temperature -7 °F 23 °F -9 °F (1912)
Degree Days  
Heating Degree Days 62 34  
Month to date heating degree days 311 238  
Since 1 July heating degree days 2262 2157  
Cooling Degree Days 0 0  
Month to date cooling degree days 0 0  
Year to date cooling degree days 0 0  
Moisture  
Dew Point -7 °F    
Average Humidity 66    
Maximum Humidity 75    
Minimum Humidity 57    
Precipitation  
Precipitation 0.00 in 0.09 in 2.28 in (1895)
Month to date precipitation 0.99 0.70  
Year to date precipitation 0.99 0.70  
Snow  
Snow 0.00 in 0.20 in 11.60 in (1996)
Month to date snowfall 5.0 1.3  
Since 1 July snowfall 17.8 6.9  
Snow Depth 1.00 in    
Sea Level Pressure  
Sea Level Pressure 30.46 in    
Wind  
Wind Speed 9 mph (SW)    
Max Wind Speed 17 mph    
Max Gust Speed 24 mph    
Visibility 10 miles    
Events      
T = Trace of Precipitation, MM = Missing Value Source: NWS Daily Summary

Daily Weather History Graph

Daily Weather History Graph

Search for Another Location

Airport:

Trip Planner

Search our weather history database for the weather conditions in past years. The results will help you decide how hot, cold, wet, or windy it might be!

Date:

Astronomy

Jan. 07, 2014 Rise Set
Actual Time 7:57 AM EST 5:32 PM EST
Civil Twilight 7:28 AM EST 6:02 PM EST
Nautical Twilight 6:55 AM EST 6:35 PM EST
Astronomical Twilight 6:22 AM EST 7:07 PM EST
Moon 11:49 AM EST (1/7) 12:00 AM EST (1/7)
Length of Visible Light 10h 33m
Length of Day
9h 34m
Waxing Crescent, 45% of the Moon is Illuminated
Jan 7
Waxing Crescent
Jan 7
First Quarter
Jan 15
Full
Jan 24
Last Quarter
Jan 30
New

Hourly Weather History & Observations

Time (EST) Temp. Windchill Dew Point Humidity Pressure Visibility Wind Dir Wind Speed Gust Speed Precip Events Conditions
12:52 AM -7.1 °F -25.0 °F -15.0 °F 68% 30.45 in 10.0 mi West 10.4 mph - N/A   Scattered Clouds
1:52 AM -7.1 °F -25.9 °F -15.0 °F 68% 30.46 in 10.0 mi WSW 11.5 mph 20.7 mph N/A   Scattered Clouds
2:52 AM -6.0 °F -22.6 °F -14.1 °F 68% 30.48 in 10.0 mi WSW 9.2 mph 17.3 mph N/A   Partly Cloudy
3:52 AM -6.0 °F -21.5 °F -14.1 °F 68% 30.45 in 10.0 mi SW 8.1 mph - N/A   Clear
4:52 AM -6.0 °F -22.6 °F -14.1 °F 68% 30.46 in 10.0 mi WSW 9.2 mph - N/A   Partly Cloudy
5:52 AM -6.0 °F -18.6 °F -14.1 °F 68% 30.46 in 10.0 mi WSW 5.8 mph 17.3 mph N/A   Partly Cloudy
6:52 AM -6.0 °F -20.1 °F -13.0 °F 72% 30.48 in 10.0 mi WSW 6.9 mph - N/A   Partly Cloudy
7:52 AM -5.1 °F -22.5 °F -11.9 °F 72% 30.49 in 10.0 mi SW 10.4 mph - N/A   Partly Cloudy
8:52 AM -2.9 °F -19.8 °F -11.0 °F 68% 30.51 in 10.0 mi SW 10.4 mph - N/A   Partly Cloudy
9:52 AM -0.9 °F -16.4 °F -9.0 °F 69% 30.54 in 10.0 mi WSW 9.2 mph 19.6 mph N/A   Partly Cloudy
10:52 AM 1.0 °F -17.3 °F -8.0 °F 66% 30.52 in 10.0 mi SSW 13.8 mph - N/A   Partly Cloudy
11:52 AM 3.9 °F -14.3 °F -7.1 °F 60% 30.52 in 10.0 mi West 15.0 mph 20.7 mph N/A   Partly Cloudy
12:52 PM 6.1 °F -10.9 °F -4.0 °F 63% 30.47 in 10.0 mi SW 13.8 mph 18.4 mph N/A   Partly Cloudy
1:52 PM 8.1 °F -7.7 °F -4.0 °F 58% 30.45 in 10.0 mi SW 12.7 mph - N/A   Partly Cloudy
2:52 PM 9.0 °F -4.2 °F -2.9 °F 59% 30.43 in 10.0 mi South 9.2 mph - N/A   Mostly Cloudy
3:52 PM 9.0 °F -4.2 °F -2.9 °F 59% 30.45 in 10.0 mi SSW 9.2 mph - N/A   Overcast
4:52 PM 10.0 °F -3.7 °F -2.0 °F 58% 30.44 in 10.0 mi SW 10.4 mph - N/A   Mostly Cloudy
5:52 PM 9.0 °F -4.2 °F -0.9 °F 64% 30.42 in 10.0 mi South 9.2 mph - N/A   Mostly Cloudy
6:52 PM 10.0 °F 0.4 °F -0.0 °F 64% 30.43 in 10.0 mi South 5.8 mph - N/A   Overcast
7:52 PM 10.9 °F -0.8 °F -0.0 °F 61% 30.43 in 10.0 mi South 8.1 mph - N/A   Overcast
8:52 PM 10.9 °F -0.8 °F 1.0 °F 64% 30.44 in 10.0 mi South 8.1 mph - N/A   Overcast
9:52 PM 10.9 °F 1.4 °F 3.0 °F 70% 30.45 in 10.0 mi SSW 5.8 mph - N/A   Overcast
10:52 PM 10.0 °F 0.4 °F 1.9 °F 70% 30.44 in 10.0 mi South 5.8 mph - N/A   Partly Cloudy
11:52 PM 8.1 °F -2.0 °F 1.9 °F 76% 30.43 in 10.0 mi South 5.8 mph - N/A   Partly Cloudy